Time,TemperatureF,DewpointF,PressureIn,WindDirection,WindDirectionDegrees,WindSpeedMPH,WindSpeedGustMPH,Humidity,HourlyPrecipIn,Conditions,Clouds,dailyrainin,SoftwareType,DateUTC
2013-03-23 00:33:00,33.0,-99.9,29.91,NW,316,3.0,11.0,-999,-99.99,,,-99.99,,2013-03-23 04:33:00,
2013-03-23 00:43:00,33.0,-99.9,29.91,NW,316,3.0,11.0,-999,-99.99,,,-99.99,,2013-03-23 04:43:00,
2013-03-23 00:52:00,32.0,-99.9,29.91,North,-999,-999.0,3.0,-999,-99.99,,,-99.99,,2013-03-23 04:52:00,
2013-03-23 01:22:00,32.0,-99.9,29.91,North,-999,-999.0,3.0,-999,-99.99,,,-99.99,,2013-03-23 05:22:00,
2013-03-23 01:33:00,32.0,-99.9,29.91,North,-999,-999.0,3.0,-999,-99.99,,,-99.99,,2013-03-23 05:33:00,
2013-03-23 01:42:00,32.0,-99.9,29.91,North,-999,-999.0,3.0,-999,-99.99,,,-99.99,,2013-03-23 05:42:00,
2013-03-23 01:52:00,31.0,-99.9,29.92,NE,47,-999.0,-999.0,-999,-99.99,,,-99.99,,2013-03-23 05:52:00,
2013-03-23 02:22:00,31.0,-99.9,29.92,NE,47,-999.0,-999.0,-999,-99.99,,,-99.99,,2013-03-23 06:22:00,
2013-03-23 02:32:00,31.0,-99.9,29.92,NE,47,-999.0,-999.0,-999,-99.99,,,-99.99,,2013-03-23 06:32:00,
2013-03-23 02:42:00,31.0,-99.9,29.92,NE,47,-999.0,-999.0,-999,-99.99,,,-99.99,,2013-03-23 06:42:00,
2013-03-23 03:52:00,29.0,-99.9,29.90,SSW,209,-999.0,3.0,-999,-99.99,,,-99.99,,2013-03-23 07:52:00,
2013-03-23 04:23:00,29.0,-99.9,29.90,SSW,209,-999.0,3.0,-999,-99.99,,,-99.99,,2013-03-23 08:23:00,
2013-03-23 04:32:00,29.0,-99.9,29.90,SSW,209,-999.0,3.0,-999,-99.99,,,-99.99,,2013-03-23 08:32:00,
2013-03-23 04:42:00,29.0,-99.9,29.90,SSW,209,-999.0,3.0,-999,-99.99,,,-99.99,,2013-03-23 08:42:00,
2013-03-23 04:52:00,29.0,-99.9,29.90,East,87,-999.0,5.0,-999,-99.99,,,-99.99,,2013-03-23 08:52:00,
2013-03-23 05:22:00,29.0,-99.9,29.90,East,87,-999.0,5.0,-999,-99.99,,,-99.99,,2013-03-23 09:22:00,
2013-03-23 05:33:00,29.0,-99.9,29.90,East,87,-999.0,5.0,-999,-99.99,,,-99.99,,2013-03-23 09:33:00,
2013-03-23 05:43:00,29.0,-99.9,29.90,East,87,-999.0,5.0,-999,-99.99,,,-99.99,,2013-03-23 09:43:00,
2013-03-23 05:52:00,29.0,-99.9,29.91,NNE,23,-999.0,-999.0,-999,-99.99,,,-99.99,,2013-03-23 09:52:00,
2013-03-23 06:24:00,29.0,-99.9,29.91,NNE,23,-999.0,-999.0,-999,-99.99,,,-99.99,,2013-03-23 10:24:00,
2013-03-23 06:34:00,29.0,-99.9,29.91,NNE,23,-999.0,-999.0,-999,-99.99,,,-99.99,,2013-03-23 10:34:00,
2013-03-23 06:43:00,29.0,-99.9,29.91,NNE,23,-999.0,-999.0,-999,-99.99,,,-99.99,,2013-03-23 10:43:00,
2013-03-23 06:52:00,28.0,-99.9,29.92,SE,130,-999.0,-999.0,-999,-99.99,,,-99.99,,2013-03-23 10:52:00,
2013-03-23 07:22:00,28.0,-99.9,29.92,SE,130,-999.0,-999.0,-999,-99.99,,,-99.99,,2013-03-23 11:22:00,
2013-03-23 07:32:00,28.0,-99.9,29.92,SE,130,-999.0,-999.0,-999,-99.99,,,-99.99,,2013-03-23 11:32:00,
2013-03-23 07:42:00,28.0,-99.9,29.92,SE,130,-999.0,-999.0,-999,-99.99,,,-99.99,,2013-03-23 11:42:00,
2013-03-23 07:52:00,31.0,-99.9,29.92,East,90,-999.0,-999.0,-999,-99.99,,,-99.99,,2013-03-23 11:52:00,
2013-03-23 08:22:00,31.0,-99.9,29.92,East,90,-999.0,-999.0,-999,-99.99,,,-99.99,,2013-03-23 12:22:00,
2013-03-23 08:34:00,31.0,-99.9,29.92,East,90,-999.0,-999.0,-999,-99.99,,,-99.99,,2013-03-23 12:34:00,
2013-03-23 08:43:00,31.0,-99.9,29.92,East,90,-999.0,-999.0,-999,-99.99,,,-99.99,,2013-03-23 12:43:00,
2013-03-23 08:52:00,35.0,-99.9,29.92,South,170,-999.0,7.0,-999,-99.99,,,-99.99,,2013-03-23 12:52:00,
2013-03-23 09:23:00,35.0,-99.9,29.92,South,170,-999.0,7.0,-999,-99.99,,,-99.99,,2013-03-23 13:23:00,
2013-03-23 09:33:00,35.0,-99.9,29.92,South,170,-999.0,7.0,-999,-99.99,,,-99.99,,2013-03-23 13:33:00,
2013-03-23 09:43:00,35.0,-99.9,29.92,South,170,-999.0,7.0,-999,-99.99,,,-99.99,,2013-03-23 13:43:00,
2013-03-23 09:52:00,38.0,-99.9,29.91,ESE,113,-999.0,10.0,-999,-99.99,,,-99.99,,2013-03-23 13:52:00,
2013-03-23 10:23:00,38.0,-99.9,29.91,ESE,113,-999.0,10.0,-999,-99.99,,,-99.99,,2013-03-23 14:23:00,
2013-03-23 10:33:00,38.0,-99.9,29.91,ESE,113,-999.0,10.0,-999,-99.99,,,-99.99,,2013-03-23 14:33:00,
2013-03-23 10:43:00,38.0,-99.9,29.91,ESE,113,-999.0,10.0,-999,-99.99,,,-99.99,,2013-03-23 14:43:00,
2013-03-23 10:52:00,39.0,-99.9,29.91,NW,323,3.0,10.0,-999,-99.99,,,-99.99,,2013-03-23 14:52:00,
2013-03-23 11:23:00,39.0,-99.9,29.91,NW,323,3.0,10.0,-999,-99.99,,,-99.99,,2013-03-23 15:23:00,
2013-03-23 11:34:00,39.0,-99.9,29.91,NW,323,3.0,10.0,-999,-99.99,,,-99.99,,2013-03-23 15:34:00,
2013-03-23 11:44:00,39.0,-99.9,29.91,NW,323,3.0,10.0,-999,-99.99,,,-99.99,,2013-03-23 15:44:00,
2013-03-23 11:52:00,42.0,-99.9,29.92,ENE,57,7.0,12.0,-999,-99.99,,,-99.99,,2013-03-23 15:52:00,
2013-03-23 12:23:00,42.0,-99.9,29.92,ENE,57,7.0,12.0,-999,-99.99,,,-99.99,,2013-03-23 16:23:00,
2013-03-23 12:33:00,42.0,-99.9,29.92,ENE,57,7.0,12.0,-999,-99.99,,,-99.99,,2013-03-23 16:33:00,
2013-03-23 12:43:00,42.0,-99.9,29.92,ENE,57,7.0,12.0,-999,-99.99,,,-99.99,,2013-03-23 16:43:00,
2013-03-23 12:52:00,42.0,-99.9,29.91,SE,140,-999.0,11.0,-999,-99.99,,,-99.99,,2013-03-23 16:52:00,
2013-03-23 13:23:00,42.0,-99.9,29.91,SE,140,-999.0,11.0,-999,-99.99,,,-99.99,,2013-03-23 17:23:00,
2013-03-23 13:33:00,42.0,-99.9,29.91,SE,140,-999.0,11.0,-999,-99.99,,,-99.99,,2013-03-23 17:33:00,
2013-03-23 13:43:00,42.0,-99.9,29.91,SE,140,-999.0,11.0,-999,-99.99,,,-99.99,,2013-03-23 17:43:00,
2013-03-23 13:52:00,42.0,-99.9,29.90,ENE,74,-999.0,12.0,-999,-99.99,,,-99.99,,2013-03-23 17:52:00,
2013-03-23 14:23:00,42.0,-99.9,29.90,ENE,74,-999.0,12.0,-999,-99.99,,,-99.99,,2013-03-23 18:23:00,
2013-03-23 14:32:00,42.0,-99.9,29.90,ENE,74,-999.0,12.0,-999,-99.99,,,-99.99,,2013-03-23 18:32:00,
2013-03-23 14:43:00,42.0,-99.9,29.90,ENE,74,-999.0,12.0,-999,-99.99,,,-99.99,,2013-03-23 18:43:00,
2013-03-23 14:52:00,46.0,-99.9,29.88,NNE,19,5.0,11.0,-999,-99.99,,,-99.99,,2013-03-23 18:52:00,
2013-03-23 15:23:00,46.0,-99.9,29.88,NNE,19,5.0,11.0,-999,-99.99,,,-99.99,,2013-03-23 19:23:00,
2013-03-23 15:33:00,46.0,-99.9,29.88,NNE,19,5.0,11.0,-999,-99.99,,,-99.99,,2013-03-23 19:33:00,
2013-03-23 15:43:00,46.0,-99.9,29.88,NNE,19,5.0,11.0,-999,-99.99,,,-99.99,,2013-03-23 19:43:00,
2013-03-23 15:52:00,45.0,-99.9,29.88,ESE,119,4.0,7.0,-999,-99.99,,,-99.99,,2013-03-23 19:52:00,
2013-03-23 16:23:00,45.0,-99.9,29.88,ESE,119,4.0,7.0,-999,-99.99,,,-99.99,,2013-03-23 20:23:00,
2013-03-23 16:33:00,45.0,-99.9,29.88,ESE,119,4.0,7.0,-999,-99.99,,,-99.99,,2013-03-23 20:33:00,
2013-03-23 16:43:00,45.0,-99.9,29.88,ESE,119,4.0,7.0,-999,-99.99,,,-99.99,,2013-03-23 20:43:00,
2013-03-23 16:52:00,42.0,-99.9,29.88,NNE,27,-999.0,19.0,-999,-99.99,,,-99.99,,2013-03-23 20:52:00,
2013-03-23 17:23:00,42.0,-99.9,29.88,NNE,27,-999.0,19.0,-999,-99.99,,,-99.99,,2013-03-23 21:23:00,
2013-03-23 17:33:00,42.0,-99.9,29.88,NNE,27,-999.0,19.0,-999,-99.99,,,-99.99,,2013-03-23 21:33:00,
2013-03-23 17:43:00,42.0,-99.9,29.88,NNE,27,-999.0,19.0,-999,-99.99,,,-99.99,,2013-03-23 21:43:00,
2013-03-23 17:52:00,40.0,-99.9,29.88,NE,44,-999.0,-999.0,-999,-99.99,,,-99.99,,2013-03-23 21:52:00,
2013-03-23 18:24:00,40.0,-99.9,29.88,NE,44,-999.0,-999.0,-999,-99.99,,,-99.99,,2013-03-23 22:24:00,
2013-03-23 18:33:00,40.0,-99.9,29.88,NE,44,-999.0,-999.0,-999,-99.99,,,-99.99,,2013-03-23 22:33:00,
2013-03-23 18:43:00,40.0,-99.9,29.88,NE,44,-999.0,-999.0,-999,-99.99,,,-99.99,,2013-03-23 22:43:00,
2013-03-23 18:52:00,38.0,-99.9,29.90,North,0,-999.0,9.0,-999,-99.99,,,-99.99,,2013-03-23 22:52:00,
2013-03-23 19:23:00,38.0,-99.9,29.90,North,0,-999.0,9.0,-999,-99.99,,,-99.99,,2013-03-23 23:23:00,
2013-03-23 19:33:00,38.0,-99.9,29.90,North,0,-999.0,9.0,-999,-99.99,,,-99.99,,2013-03-23 23:33:00,
2013-03-23 19:43:00,38.0,-99.9,29.90,North,0,-999.0,9.0,-999,-99.99,,,-99.99,,2013-03-23 23:43:00,
2013-03-23 19:52:00,35.0,-99.9,29.93,South,183,-999.0,7.0,-999,-99.99,,,-99.99,,2013-03-23 23:52:00,
2013-03-23 20:23:00,35.0,-99.9,29.93,South,183,-999.0,7.0,-999,-99.99,,,-99.99,,2013-03-24 00:23:00,
2013-03-23 20:33:00,35.0,-99.9,29.93,South,183,-999.0,7.0,-999,-99.99,,,-99.99,,2013-03-24 00:33:00,
2013-03-23 20:43:00,35.0,-99.9,29.93,South,183,-999.0,7.0,-999,-99.99,,,-99.99,,2013-03-24 00:43:00,
2013-03-23 20:52:00,33.0,-99.9,29.94,ENE,67,-999.0,-999.0,-999,-99.99,,,-99.99,,2013-03-24 00:52:00,
2013-03-23 21:22:00,33.0,-99.9,29.94,ENE,67,-999.0,-999.0,-999,-99.99,,,-99.99,,2013-03-24 01:22:00,
2013-03-23 21:33:00,33.0,-99.9,29.94,ENE,67,-999.0,-999.0,-999,-99.99,,,-99.99,,2013-03-24 01:33:00,
2013-03-23 21:43:00,33.0,-99.9,29.94,ENE,67,-999.0,-999.0,-999,-99.99,,,-99.99,,2013-03-24 01:43:00,
2013-03-23 21:52:00,32.0,-99.9,29.95,WNW,292,-999.0,8.0,-999,-99.99,,,-99.99,,2013-03-24 01:52:00,
2013-03-23 22:22:00,32.0,-99.9,29.95,WNW,292,-999.0,8.0,-999,-99.99,,,-99.99,,2013-03-24 02:22:00,
2013-03-23 22:32:00,32.0,-99.9,29.95,WNW,292,-999.0,8.0,-999,-99.99,,,-99.99,,2013-03-24 02:32:00,
2013-03-23 22:43:00,32.0,-99.9,29.95,WNW,292,-999.0,8.0,-999,-99.99,,,-99.99,,2013-03-24 02:43:00,
2013-03-23 22:52:00,32.0,-99.9,29.97,SSW,196,-999.0,5.0,-999,-99.99,,,-99.99,,2013-03-24 02:52:00,
2013-03-23 23:33:00,32.0,-99.9,29.97,SSW,196,-999.0,5.0,-999,-99.99,,,-99.99,,2013-03-24 03:33:00,
2013-03-23 23:43:00,32.0,-99.9,29.97,SSW,196,-999.0,5.0,-999,-99.99,,,-99.99,,2013-03-24 03:43:00,
2013-03-23 23:52:00,33.0,-99.9,29.96,NNE,30,-999.0,7.0,-999,-99.99,,,-99.99,,2013-03-24 03:52:00,